Regional Weather Roundup
Issued by NWS

Home | Current Version | Previous Version | Text Only | Print | Product List | Glossary Off
Versions: 1 2 3 4 5 6 7 8 9 10 11 12 13 14 15 16 17 18 19 20 21 22 23 24 25 26 27 28 29 30 31 32 33 34 35 36 37 38 39 40 41 42 43 44 45 46 47 48 49 50

000
ASUS45 KSLC 061410
RWRUT

UTAH REGIONAL WEATHER ROUNDUP
NATIONAL WEATHER SERVICE SALT LAKE CITY UT
800 AM MDT MON JUL 06 2015

UTZ001>011-023>025-061500-

NORTHERN UTAH

CITY           SKY/WX    TMP DP  RH WIND       PRES   REMARKS
BRIGHAM CITY   SUNNY     67  58  73 CALM      30.11S
HILL AFB       SUNNY     68  55  64 SE13      30.13S
LOGAN          SUNNY     63  56  78 S7        30.14S
OGDEN          SUNNY     71  55  56 S6        30.11R
PROVO AIRPORT  MOSUNNY   70  52  52 SE7       30.14R
SALT LAKE CITY MOSUNNY   74  56  53 SE6       30.10R
VERNAL         MOSUNNY   69  54  58 N3        30.20R
WENDOVER       SUNNY     75  48  38 NW15      30.13R
HEBER CITY     SUNNY     59  52  77 CALM      30.22S
WEST JORDAN    SUNNY     73  55  53 S6        30.13S

$$

UTZ012>022-026-027-061500-

SOUTHERN/CENTRAL UTAH

CITY           SKY/WX    TMP DP  RH WIND       PRES   REMARKS
BLANDING       CLOUDY    64  57  80 E3        30.28R
BRYCE CANYON   CLOUDY    61  48  62 NW3       30.35R
CEDAR CITY     CLOUDY    68  48  48 SE6       30.22R
DELTA          PTSUNNY   73  48  41 S7        30.14R
HANKSVILLE     PTSUNNY   68  61  77 CALM      30.15R
MILFORD        CLOUDY    68  47  46 S5        30.18R
MOAB/CYNLANDS  SUNNY     72  58  61 SE6       30.13R
PRICE          SUNNY     71  52  50 CALM      30.22R
ST GEORGE      SUNNY     79  50  36 SE5       30.08R
KANAB          CLOUDY    70  55  60 CALM      30.27

$$

REGIONAL REPORTS     COLORADO/ARIZONA

CITY           SKY/WX    TMP DP  RH WIND       PRES   REMARKS
CRAIG, CO      CLOUDY    55  54  96 CALM      30.28S
GRAND JUNCTION MOSUNNY   67  58  72 SE7       30.16S
RIFLE          PTSUNNY   61  56  83 E5        30.22S
MONTROSE       MOSUNNY   63  54  72 CALM      30.24R
CORTEZ         PTSUNNY   67  53  61 NE6       30.22R
PAGE, AZ       CLOUDY    78  51  38 VRB7      30.12R
GRAND CANYON   CLOUDY    62  53  72 NW3       30.31F
KINGMAN        SUNNY     74  59  59 S5        30.10R
FLAGSTAFF      PTSUNNY   57  54  89 SW5       30.33R

$$

REGIONAL REPORTS    NEVADA/IDAHO/WYOMING

CITY           SKY/WX    TMP DP  RH WIND       PRES   REMARKS
LAS VEGAS, NV  PTSUNNY   84  54  35 S7        29.96R
ELY            CLOUDY    63  45  51 CALM      30.27R
ELKO           MOSUNNY   61  49  64 SW3       30.22R
POCATELLO, ID  PTSUNNY   66  56  70 SW7       30.15R
BURLEY         CLOUDY    65  56  72 CALM      30.12R
EVANSTON, WY   SUNNY     57  52  83 E9        30.31R
ROCK SPRINGS   PTSUNNY   58  53  84 E7        30.31S
KEMMERER       CLOUDY    55  50  82 NW5       30.34R

$$


USA.gov is the U.S. government's official web portal to all federal, state and local government web resources and services.